Flag for U.S.A. Weather past 2 weeks in Des Moines, Iowa, U.S.A.

50 °F

Scattered clouds.

Feels Like: 47 °F
Forecast: 44 / 73 °F
Wind: 7 mph from Southwest

Location: Des Moines International Airport

Current Time: Oct 10, 2015 at 9:57:20 AM

Latest Report: Oct 10, 2015 at 8:54 AM

Visibility: 10 mi

Pressure: 30.19 "Hg

Humidity: 83%

Dew point: 45 °F

Location of Des MoinesLocation

Historic Weather in Des Moines — Graph


Des Moines temperature yesterday

Maximum temperature yesterday: 65 °F (at 4:54 PM)
Minimum temperature yesterday: 51 °F (at 10:54 PM)
Average temperature yesterday: 57 °F

Past Weeks' High & Low Weather Summary

High84 °F (Sep 28, 2:54 PM)90% (Sep 28, 4:54 AM)30.39 "Hg (Sep 28, 4:54 AM)
Low44 °F (Oct 2, 6:54 AM)27% (Sep 30, 4:54 PM)29.85 "Hg (Sep 28, 3:54 PM)
Average62 °F63%30.15 "Hg
* Reported Sep 25 8:54 AM — Oct 10 8:54 AM, Des Moines, Weather by CustomWeather, © 2015

Note: Actual official high and low records may vary slightly from our data, if they occured in-between our weather recording intervals... More about our weather records


Des Moines weather history for previous 24 hours

Time TempWeatherWind HumidityBarometerVisibility
8:54 AM
Sat, Oct 10
50 °FScattered clouds.7 mph83%30.19 "Hg10 mi
7:54 AM46 °FPassing clouds.7 mph86%30.18 "Hg10 mi
6:54 AM44 °FPassing clouds.8 mph85%30.20 "Hg10 mi
5:54 AM45 °FClear.8 mph82%30.19 "Hg10 mi
4:54 AM44 °FClear.8 mph85%30.20 "Hg10 mi
3:54 AM44 °FClear.3 mph85%30.22 "Hg10 mi
2:54 AM45 °FClear.No wind82%30.23 "Hg10 mi
1:54 AM48 °FClear.No wind80%30.25 "Hg10 mi
12:54 AM47 °FClear.3 mph83%30.24 "Hg10 mi
11:54 PM
Fri, Oct 9
52 °FPassing clouds.No wind69%30.23 "Hg10 mi
10:54 PM51 °FPassing clouds.No wind74%30.23 "Hg10 mi
9:54 PM53 °FPassing clouds.No wind66%30.24 "Hg10 mi
8:54 PM57 °FPassing clouds.No wind55%30.23 "Hg10 mi
7:54 PM58 °FPassing clouds.No wind58%30.23 "Hg10 mi
6:54 PM61 °FScattered clouds.No wind42%30.23 "Hg10 mi
5:54 PM63 °FPartly sunny.8 mph38%30.22 "Hg10 mi
4:54 PM65 °FPassing clouds.10 mph37%30.23 "Hg10 mi
3:54 PM64 °FPassing clouds.10 mph41%30.23 "Hg10 mi
2:54 PM62 °FPassing clouds.5 mph46%30.24 "Hg10 mi
1:54 PM61 °FPassing clouds.8 mph50%30.26 "Hg10 mi
12:54 PM59 °FPassing clouds.10 mph54%30.28 "Hg10 mi
11:54 AM57 °FPartly sunny.12 mph55%30.29 "Hg10 mi
10:54 AM56 °FPartly sunny.12 mph58%30.30 "Hg10 mi
9:54 AM54 °FPartly sunny.14 mph59%30.29 "Hg10 mi
Weather by CustomWeather, © 2015

See weather overviewHow to use our weather pages